T 2004 June 4.7914 TT MPC q 1.202466 (2000.0) P Q Peri. 110.4895 -0.0577618 +0.7306795 Node 228.3763 +0.1376218 +0.6807328 e 1.0 Incl. 114.4898 +0.9887992 -0.0520614 >From 42 observations 2004 Apr. 9-May 5.
m1 = 13.5 + 5 logΔ + 18.0 log r